Weather History for Kozani, Greece

Change the Weather History Date:

Wednesday, May 9, 2012

  Actual Average Record
Temperature  
Mean Temperature 62 °F -  
Max Temperature 71 °F - - ()
Min Temperature 53 °F - - ()
Degree Days  
Heating Degree Days 3    
Growing Degree Days 12 (Base 50)    
Moisture  
Dew Point 48 °F    
Average Humidity 65    
Maximum Humidity 82    
Minimum Humidity 43    
Precipitation  
Precipitation 0.00 in - - ()
Sea Level Pressure  
Sea Level Pressure 30.07 in    
Wind  
Wind Speed 8 mph ()    
Max Wind Speed 15 mph    
Max Gust Speed -    
Visibility 6.2 miles    
Events Rain , Thunderstorm    
T = Trace of Precipitation, MM = Missing Value Source: Averaged Metar Reports

Daily Weather History Graph

Daily Weather History Graph

Search for Another Location

Airport:

Trip Planner

Search our weather history database for the weather conditions in past years. The results will help you decide how hot, cold, wet, or windy it might be!

Date:

Astronomy

May. 09, 2012 Rise Set
Actual Time 6:22 AM EEST 8:36 PM EEST
Civil Twilight 5:52 AM EEST 9:06 PM EEST
Nautical Twilight 5:15 AM EEST 9:43 PM EEST
Astronomical Twilight 4:34 AM EEST 10:24 PM EEST
Moon No Moon Rise 9:16 AM EEST (5/9)
Length of Visible Light 15h 14m
Length of Day
14h 13m
Waning Gibbous, 85% of the Moon is Illuminated
May 9
Waning Gibbous
May 13
Last Quarter
May 21
New
May 28
First Quarter
Jun 4
Full

Hourly Weather History & Observations

Time (EEST) Temp. Dew Point Humidity Pressure Visibility Wind Dir Wind Speed Gust Speed Precip Events Conditions
12:20 AM 59.0 °F 48.2 °F 67% 30.01 in - North 12.7 mph - N/A   Unknown
12:50 AM 59.0 °F 46.4 °F 63% 30.04 in - NNW 13.8 mph - N/A   Unknown
1:20 AM 59.0 °F 46.4 °F 63% 30.04 in - NNW 12.7 mph - N/A   Unknown
1:50 AM 59.0 °F 46.4 °F 63% 30.04 in - NW 12.7 mph - N/A   Unknown
2:20 AM 57.2 °F 46.4 °F 67% 30.04 in - NNW 12.7 mph - N/A   Unknown
2:50 AM 57.2 °F 48.2 °F 72% 30.04 in - NNW 10.4 mph - N/A   Unknown
3:20 AM 57.2 °F 48.2 °F 72% 30.04 in - NW 10.4 mph - N/A   Unknown
3:50 AM 57.2 °F 48.2 °F 72% 30.04 in - NNW 9.2 mph - N/A   Unknown
4:20 AM 57.2 °F 48.2 °F 72% 30.04 in - NNW 9.2 mph - N/A   Unknown
4:50 AM 57.2 °F 48.2 °F 72% 30.04 in - NW 9.2 mph - N/A   Unknown
5:20 AM 55.4 °F 48.2 °F 77% 30.04 in - NNW 8.1 mph - N/A   Unknown
5:50 AM 55.4 °F 48.2 °F 77% 30.04 in - NNW 9.2 mph - N/A   Unknown
6:20 AM 55.4 °F 48.2 °F 77% 30.04 in - NNW 10.4 mph - N/A   Unknown
6:50 AM 53.6 °F 48.2 °F 82% 30.06 in - NNW 9.2 mph - N/A   Unknown
7:20 AM 53.6 °F 48.2 °F 82% 30.06 in - NNW 10.4 mph - N/A   Unknown
7:50 AM 57.2 °F 48.2 °F 72% 30.06 in 6.2 mi NNW 9.2 mph - N/A   Partly Cloudy
8:50 AM 59.0 °F 48.2 °F 67% 30.09 in 6.2 mi North 9.2 mph - N/A   Partly Cloudy
9:50 AM 62.6 °F 50.0 °F 63% 30.09 in 6.2 mi North 8.1 mph - N/A   Partly Cloudy
10:50 AM 66.2 °F 50.0 °F 56% 30.09 in 6.2 mi North 5.8 mph - N/A   Scattered Clouds
11:50 AM 68.0 °F 50.0 °F 52% 30.09 in 6.2 mi NW 5.8 mph - N/A   Scattered Clouds
12:50 PM 68.0 °F 50.0 °F 52% 30.06 in 6.2 mi ENE 6.9 mph - N/A Thunderstorm Scattered Clouds
1:50 PM 62.6 °F 53.6 °F 72% 30.06 in 6.2 mi North 8.1 mph - N/A Thunderstorm Mostly Cloudy
2:50 PM 68.0 °F 46.4 °F 46% 30.06 in 6.2 mi NNE 3.5 mph - N/A   Mostly Cloudy
3:50 PM 68.0 °F 46.4 °F 46% 30.06 in 6.2 mi Calm Calm - N/A   Mostly Cloudy
4:50 PM 69.8 °F 46.4 °F 43% 30.06 in 6.2 mi ENE 15.0 mph - N/A   Mostly Cloudy
5:50 PM 71.6 °F 48.2 °F 43% 30.06 in 6.2 mi East 4.6 mph - N/A   Mostly Cloudy
6:50 PM 69.8 °F 50.0 °F 49% 30.06 in 6.2 mi Calm Calm - N/A   Mostly Cloudy
7:50 PM 62.6 °F 48.2 °F 59% 30.09 in 6.2 mi North 8.1 mph - N/A   Mostly Cloudy
8:50 PM 64.4 °F 46.4 °F 52% 30.09 in 6.2 mi Calm Calm - N/A   Mostly Cloudy
9:20 PM 62.6 °F 48.2 °F 59% 30.12 in - NW 4.6 mph - N/A   Unknown
9:50 PM 60.8 °F 48.2 °F 63% 30.12 in - Variable 3.5 mph - N/A   Unknown
10:20 PM 60.8 °F 50.0 °F 68% 30.12 in - Variable 2.3 mph - N/A   Unknown
10:50 PM 59.0 °F 50.0 °F 72% 30.15 in - NW 8.1 mph - N/A Rain Light Rain
11:20 PM 57.2 °F 50.0 °F 77% 30.15 in - North 9.2 mph - N/A   Unknown
11:50 PM 57.2 °F 48.2 °F 72% 30.15 in - NNW 6.9 mph - N/A   Unknown